Regional Weather Roundup
Issued by NWS Green Bay, WI

Home | Current Version | Previous Version | Text Only | Print | Product List | Glossary On
Versions: 1 2 3 4 5 6 7 8 9 10 11 12 13 14 15 16 17 18 19 20 21 22 23 24 25 26 27 28 29 30 31 32 33 34 35 36 37 38 39 40 41 42 43 44 45 46 47 48 49 50
000
ASUS43 KGRB 282001
RWRGRB

NORTH-CENTRAL AND NORTHEAST WISCONSIN REGIONAL WEATHER ROUNDUP
NATIONAL WEATHER SERVICE GREEN BAY WI
300 PM CDT WED JUN 28 2017

WIZ005-009-010>012-018-019-282100-
NORTH CENTRAL WISCONSIN

CITY           SKY/WX    TMP DP  RH WIND       PRES   REMARKS
IRONWOOD       LGT RAIN  63  61  93 SE10      29.64F
MANITOWISH WTR NOT AVBL
ARBOR VITAE    NOT AVBL
EAGLE RIVER    NOT AVBL
LAND O LAKES   NOT AVBL
RHINELANDER    LGT RAIN  62  61  96 SE9       29.71F
PHILLIPS       NOT AVBL
ANTIGO         NOT AVBL
TOMAHAWK       NOT AVBL
MERRILL        CLOUDY    62  62 100 S7        29.70F
$$

WIZ013-073-282100-
NORTHEAST WISCONSIN

CITY           SKY/WX    TMP DP  RH WIND       PRES   REMARKS
IRON MOUNTAIN  LGT RAIN  63  59  87 SE8       29.75F
MARINETTE      LGT RAIN  62  60  93 S8        29.78F
$$

WIZ017-030-035>037-045-282100-
CENTRAL WISCONSIN

CITY           SKY/WX    TMP DP  RH WIND       PRES   REMARKS
MEDFORD        NOT AVBL
WAUSAU         CLOUDY    63  62  97 S12       29.70F
MOSINEE        LGT RAIN  63  63 100 S10       29.72F
MARSHFIELD     CLOUDY    68  64  87 SW14G21   29.69F
WISC RAPIDS    LGT RAIN  67  65  93 SW15G21   29.73F FOG
STEVENS POINT  NOT AVBL
WAUPACA        NOT AVBL
SHAWANO        NOT AVBL
CLINTONVILLE   NOT AVBL
WAUTOMA        LGT RAIN  65  64  97 S13G23    29.76S
$$

WIZ038-039-048-051-282100-
FOX VALLEY

CITY           SKY/WX    TMP DP  RH WIND       PRES   REMARKS
NWS GREEN BAY  LGT RAIN  65  65 100 S12       29.76F
APPLETON       LGT RAIN  64  64 100 S12       29.75F
OSHKOSH        RAIN      64  62  93 S13G23    29.77S FOG
FOND DU LAC    LGT RAIN  65  61  87 S14G21    29.77F
$$

WIZ022-050-052-282100-
EAST CENTRAL WISCONSIN

CITY           SKY/WX    TMP DP  RH WIND       PRES   REMARKS
EPHRAIM        NOT AVBL
WASHINGTON ISL NOT AVBL
STURGEON BAY   LGT RAIN  59  58  96 S17       29.79F FOG
MANITOWOC      NOT AVBL
SHEBOYGAN      LGT RAIN  63  63 100 S10       29.81F FOG
$$

LMZ563-521-522-541>543-282100-
LAKESHORE

STATION/POSITION TIME  TEMP    WIND        PRES    VSBY  WAVE
                       AIR SEA DIR/SP/G                  HT/PER
                 (UTC) (F)     (DEG/KT/KT) (MB)    (MI)  (FT/S)
SHEBOYGAN LKSHOR 1900   54     180/ 19/ 20 1009.8F
KEWAUNEE LKSHORE 1930   53     180/ 12/ 14 1009.3F
NORTHPORT PIER   1940   61     170/ 10/ 19 1009.5F
N MID LAKE BUOY  1850   58 53  190/ 21/ 25 1011.0R         5/ 5
S GREEN BAY BUOY 1930   63     170/ 16/ 17 1008.3F
SISTER BAY LKSHO 1923   62     170/ 18/ 25   N/A
CHAMBERS ISLAND  1930   63     150/  6/ 12 1008.8F
MENOMINEE LKSHOR 1924          150/ 12/ 14 1008.0
$$




USA.gov is the U.S. government's official web portal to all federal, state and local government web resources and services.